When you browse on this site, cookies collect data to enhance your experience and personalize the content and advertising you see.
Visit our Privacy Policy to learn more. By continuing to use the site, you agree to this use of cookies and data.
  • In Hungary
  • List of Countries
  • For 7 days
  • Water Temperature
  • Weather Map
  • News
  • Weather Widgets
  • user-avatar
    Login

    Hourly Weather Kapulivka

    Today, 31 May, Sunday

    Time Temperature Precipitation Wind Pressure Humidity
    00:00 +12°C° 0 mm 7 mps 755 mmHg 84%
    01:00 +12°C° 0 mm 7 mps 755 mmHg 85%
    02:00 +13°C° 0 mm 6 mps 755 mmHg 86%
    03:00 +13°C° 0.2 mm 6 mps 755 mmHg 86%
    04:00 +13°C° 0.2 mm 6 mps 755 mmHg 86%
    05:00 +13°C° 0.2 mm 6 mps 755 mmHg 86%
    06:00 +15°C° 0.7 mm 6 mps 755 mmHg 80%
    07:00 +16°C° 0.7 mm 7 mps 755 mmHg 75%
    08:00 +18°C° 0.7 mm 8 mps 755 mmHg 69%
    09:00 +20°C° 0.7 mm 8 mps 755 mmHg 65%
    10:00 +20°C° 0.7 mm 8 mps 754 mmHg 61%
    11:00 +21°C° 0.7 mm 8 mps 754 mmHg 57%
    12:00 +21°C° 0.7 mm 8 mps 754 mmHg 57%
    13:00 +22°C° 0.7 mm 8 mps 754 mmHg 57%
    14:00 +22°C° 0.7 mm 8 mps 754 mmHg 57%
    15:00 +21°C° 0.4 mm 8 mps 754 mmHg 58%
    16:00 +21°C° 0.4 mm 8 mps 754 mmHg 59%
    17:00 +21°C° 0.4 mm 7 mps 754 mmHg 60%
    18:00 +18°C° 0 mm 7 mps 754 mmHg 64%
    19:00 +17°C° 0 mm 6 mps 754 mmHg 68%
    20:00 +15°C° 0 mm 5 mps 754 mmHg 72%
    21:00 +15°C° 0 mm 5 mps 754 mmHg 75%
    22:00 +14°C° 0 mm 5 mps 754 mmHg 77%
    23:00 +14°C° 0 mm 6 mps 754 mmHg 79%

    Tomorrow, 1 June, Monday

    Time Temperature Precipitation Wind Pressure Humidity
    00:00 +14°C° 0 mm 6 mps 754 mmHg 81%
    01:00 +14°C° 0 mm 6 mps 753 mmHg 82%
    02:00 +14°C° 0 mm 6 mps 753 mmHg 83%
    03:00 +14°C° 0 mm 6 mps 753 mmHg 83%
    04:00 +14°C° 0 mm 6 mps 753 mmHg 83%
    05:00 +14°C° 0 mm 6 mps 752 mmHg 83%
    06:00 +16°C° 0.6 mm 6 mps 752 mmHg 78%
    07:00 +17°C° 0.6 mm 6 mps 752 mmHg 72%
    08:00 +20°C° 0.6 mm 7 mps 752 mmHg 66%
    09:00 +20°C° 0.8 mm 7 mps 752 mmHg 64%
    10:00 +21°C° 0.8 mm 8 mps 751 mmHg 62%
    11:00 +21°C° 0.8 mm 8 mps 751 mmHg 60%
    12:00 +21°C° 0.5 mm 9 mps 751 mmHg 57%
    13:00 +22°C° 0.5 mm 9 mps 750 mmHg 55%
    14:00 +22°C° 0.5 mm 9 mps 750 mmHg 52%
    15:00 +21°C° 0.1 mm 9 mps 750 mmHg 54%
    16:00 +21°C° 0.1 mm 9 mps 750 mmHg 56%
    17:00 +20°C° 0.1 mm 8 mps 750 mmHg 57%
    18:00 +17°C° 0.1 mm 8 mps 750 mmHg 65%
    19:00 +16°C° 0.1 mm 7 mps 750 mmHg 72%
    20:00 +14°C° 0.1 mm 6 mps 751 mmHg 79%
    21:00 +13°C° 0 mm 6 mps 751 mmHg 82%
    22:00 +11°C° 0 mm 6 mps 751 mmHg 84%
    23:00 +10°C° 0 mm 5 mps 751 mmHg 87%

    Day after tomorrow, 2 June, Tuesday

    Time Temperature Precipitation Wind Pressure Humidity
    00:00 +10°C° 0 mm 5 mps 751 mmHg 84%
    01:00 +10°C° 0 mm 5 mps 752 mmHg 82%
    02:00 +10°C° 0 mm 5 mps 752 mmHg 79%
    03:00 +10°C° 0 mm 4 mps 752 mmHg 80%
    04:00 +10°C° 0 mm 3 mps 752 mmHg 80%
    05:00 +10°C° 0 mm 3 mps 752 mmHg 81%
    06:00 +12°C° 0 mm 2 mps 753 mmHg 74%
    07:00 +13°C° 0 mm 2 mps 753 mmHg 68%
    08:00 +14°C° 0 mm 2 mps 753 mmHg 62%
    09:00 +14°C° 0 mm 3 mps 753 mmHg 57%
    10:00 +16°C° 0 mm 3 mps 753 mmHg 53%
    11:00 +18°C° 0 mm 3 mps 753 mmHg 48%
    12:00 +18°C° 0 mm 4 mps 753 mmHg 47%
    13:00 +19°C° 0 mm 4 mps 753 mmHg 45%
    14:00 +19°C° 0 mm 4 mps 753 mmHg 43%
    15:00 +19°C° 0 mm 4 mps 753 mmHg 43%
    16:00 +19°C° 0 mm 3 mps 753 mmHg 43%
    17:00 +19°C° 0 mm 3 mps 753 mmHg 43%
    18:00 +18°C° 0 mm 2 mps 753 mmHg 46%
    19:00 +17°C° 0 mm 2 mps 753 mmHg 49%
    20:00 +15°C° 0 mm 1 mps 753 mmHg 53%
    21:00 +15°C° 0 mm 1 mps 753 mmHg 55%
    22:00 +14°C° 0 mm 1 mps 753 mmHg 56%
    23:00 +14°C° 0 mm 1 mps 753 mmHg 58%

    3 June, Wednesday

    Time Temperature Precipitation Wind Pressure Humidity
    00:00 +14°C° 0 mm 1 mps 753 mmHg 60%
    01:00 +13°C° 0 mm 1 mps 753 mmHg 62%
    02:00 +13°C° 0 mm 1 mps 753 mmHg 64%
    03:00 +13°C° 0 mm 2 mps 753 mmHg 65%
    04:00 +14°C° 0 mm 2 mps 753 mmHg 66%
    05:00 +14°C° 0 mm 2 mps 753 mmHg 67%
    06:00 +15°C° 0 mm 2 mps 753 mmHg 64%
    07:00 +16°C° 0 mm 3 mps 753 mmHg 62%
    08:00 +18°C° 0 mm 3 mps 753 mmHg 59%
    09:00 +18°C° 0.1 mm 3 mps 753 mmHg 59%
    10:00 +18°C° 0.1 mm 3 mps 753 mmHg 58%
    11:00 +18°C° 0.1 mm 3 mps 753 mmHg 58%
    12:00 +19°C° 0 mm 2 mps 753 mmHg 56%
    13:00 +19°C° 0 mm 2 mps 753 mmHg 53%
    14:00 +20°C° 0 mm 2 mps 753 mmHg 51%
    15:00 +20°C° 0.2 mm 2 mps 753 mmHg 52%
    16:00 +20°C° 0.2 mm 2 mps 753 mmHg 54%
    17:00 +20°C° 0.2 mm 3 mps 753 mmHg 55%
    18:00 +18°C° 0.2 mm 3 mps 753 mmHg 61%
    19:00 +17°C° 0.2 mm 3 mps 753 mmHg 67%
    20:00 +14°C° 0.2 mm 3 mps 753 mmHg 73%
    21:00 +14°C° 0 mm 3 mps 754 mmHg 75%
    22:00 +13°C° 0 mm 4 mps 754 mmHg 77%
    23:00 +12°C° 0 mm 4 mps 754 mmHg 79%

    4 June, Thursday

    Time Temperature Precipitation Wind Pressure Humidity
    00:00 +12°C° 0 mm 4 mps 754 mmHg 81%
    01:00 +11°C° 0 mm 4 mps 754 mmHg 84%
    02:00 +11°C° 0 mm 4 mps 754 mmHg 86%
    03:00 +12°C° 0 mm 4 mps 754 mmHg 86%
    04:00 +12°C° 0 mm 4 mps 754 mmHg 86%
    05:00 +12°C° 0 mm 4 mps 754 mmHg 87%
    06:00 +14°C° 0.3 mm 4 mps 754 mmHg 79%
    07:00 +16°C° 0.3 mm 5 mps 755 mmHg 72%
    08:00 +19°C° 0.3 mm 5 mps 755 mmHg 64%
    09:00 +20°C° 0.6 mm 6 mps 755 mmHg 61%
    10:00 +20°C° 0.6 mm 6 mps 755 mmHg 58%
    11:00 +21°C° 0.6 mm 6 mps 755 mmHg 56%
    12:00 +21°C° 0.8 mm 6 mps 755 mmHg 55%
    13:00 +22°C° 0.8 mm 7 mps 754 mmHg 55%
    14:00 +22°C° 0.8 mm 7 mps 754 mmHg 55%
    15:00 +22°C° 0.3 mm 7 mps 754 mmHg 56%
    16:00 +22°C° 0.3 mm 7 mps 754 mmHg 58%
    17:00 +21°C° 0.3 mm 7 mps 754 mmHg 59%
    18:00 +20°C° 0.2 mm 6 mps 755 mmHg 64%
    19:00 +17°C° 0.2 mm 6 mps 755 mmHg 70%
    20:00 +16°C° 0.2 mm 5 mps 755 mmHg 75%
    21:00 +15°C° 0 mm 5 mps 755 mmHg 78%
    22:00 +15°C° 0 mm 5 mps 756 mmHg 80%
    23:00 +14°C° 0 mm 5 mps 756 mmHg 83%

    5 June, Friday

    Time Temperature Precipitation Wind Pressure Humidity
    00:00 +14°C° 0 mm 5 mps 756 mmHg 85%
    01:00 +14°C° 0 mm 5 mps 755 mmHg 87%
    02:00 +13°C° 0 mm 5 mps 755 mmHg 90%
    03:00 +14°C° 0 mm 6 mps 755 mmHg 89%
    04:00 +14°C° 0 mm 6 mps 755 mmHg 87%
    05:00 +14°C° 0 mm 6 mps 755 mmHg 86%
    06:00 +16°C° 0 mm 7 mps 755 mmHg 80%
    07:00 +17°C° 0 mm 8 mps 755 mmHg 74%
    08:00 +20°C° 0 mm 8 mps 755 mmHg 68%
    09:00 +21°C° 0 mm 9 mps 755 mmHg 64%
    10:00 +23°C° 0 mm 9 mps 755 mmHg 60%
    11:00 +24°C° 0 mm 10 mps 755 mmHg 56%
    12:00 +24°C° 0.2 mm 10 mps 755 mmHg 55%
    13:00 +26°C° 0.2 mm 10 mps 754 mmHg 55%
    14:00 +26°C° 0.2 mm 11 mps 754 mmHg 54%
    15:00 +26°C° 0.1 mm 10 mps 754 mmHg 55%
    16:00 +24°C° 0.1 mm 10 mps 754 mmHg 57%
    17:00 +24°C° 0.1 mm 10 mps 753 mmHg 58%
    18:00 +22°C° 0.1 mm 9 mps 754 mmHg 63%
    19:00 +21°C° 0.1 mm 8 mps 754 mmHg 68%
    20:00 +20°C° 0.1 mm 7 mps 754 mmHg 73%
    21:00 +18°C° 0.3 mm 7 mps 754 mmHg 77%
    22:00 +17°C° 0.3 mm 7 mps 754 mmHg 81%
    23:00 +17°C° 0.3 mm 7 mps 755 mmHg 85%
    Show more